RADUGA-1M 1 [-]

Last updated on June 24, 2019, 3:40 a.m. UTC

1 32373U 07058A   19173.83988324  .00000022  00000-0  00000-0 0  9998
2 32373   4.5688  70.4048 0003385 303.5785 225.8080  0.99397661 27031
UTC
Height (km)
Latitude
Longitude
Inclination
Orbital Period
UTC large
Height (km)
Speed (km/s)
/
Latitude / Longitude
Inclination (degrees)
Orbital Period (minutes)
Azimuth
Elevation
Range (km)
Doppler Factor
iOS Compass Heading
iOS Angle

Next 30 passes for location: Hong Kong

Rise time Rise Azimuth (degrees) Set time Set Azimuth (degrees) Duration Max altitude (degrees)

No matching passes for this satellites